CYYB

North Bay Jack Garland Airport

Airport
ICAO code
CYYB
Summary
ICAO Region
NAM
ICAO Territory
Location

North Bay, Ontario,

Coordinates
46° 21' 49" N , 79° 25' 22" W
KCC
Airport CFIT
Altimeter Temperature Error Correction
Airport GND
Aircraft Ground De/Anti Icing
Airport WX
Fog
Metar
CYYB 161200Z 36006KT 30SM SKC 01/M04 A3017 RMK SLP229

Description

Regional airport located in North Bay, Ontario, Canada.

Climatology

Humid Continental climate (Köppen climate classification Dfb) - Variable weather patterns and a large seasonal temperature variance. Summers are often warm and humid with frequent thunderstorms and winters can be very cold with frequent snowfall and persistent snow cover.

Runways

Designator Length Width Surface Rops
13/31 762 23 GRS No/No
18/36 1364 46 ASP Yes/Yes
8/26 3048 61 ASP Yes/Yes

Airport map

Aerial View

SKYbrary Partners:

Safety knowledge contributed by: